• In Portugal
  • List of Countries
  • For 7 days
  • Water Temperature
  • Satellite Maps
  • Weather Map
  • Weather Widgets
  • user-avatar
    Login

    Hourly Weather Ischgl

    Today, 16 August, Thursday

    Time Temperature Precipitation Wind Pressure Humidity
    00:00 +6°C° 0 mm 1 mps 578 mmHg 94%
    01:00 +6°C° 0 mm 1 mps 578 mmHg 92%
    02:00 +6°C° 0 mm 1 mps 578 mmHg 92%
    03:00 +5°C° 0 mm 1 mps 577 mmHg 92%
    04:00 +5°C° 0 mm 1 mps 577 mmHg 92%
    05:00 +6°C° 0 mm 1 mps 578 mmHg 89%
    06:00 +7°C° 0 mm 1 mps 578 mmHg 86%
    07:00 +8°C° 0 mm 1 mps 579 mmHg 83%
    08:00 +10°C° 0 mm 1 mps 580 mmHg 73%
    09:00 +13°C° 0 mm 1 mps 581 mmHg 62%
    10:00 +15°C° 0 mm 1 mps 581 mmHg 52%
    11:00 +15°C° 0 mm 1 mps 581 mmHg 50%
    12:00 +16°C° 0 mm 1 mps 582 mmHg 47%
    13:00 +18°C° 0 mm 1 mps 582 mmHg 44%
    14:00 +16°C° 0 mm 1 mps 581 mmHg 48%
    15:00 +16°C° 0 mm 1 mps 581 mmHg 51%
    16:00 +15°C° 0 mm 1 mps 580 mmHg 54%
    17:00 +14°C° 0.1 mm 1 mps 579 mmHg 62%
    18:00 +13°C° 0.1 mm 1 mps 579 mmHg 71%
    19:00 +11°C° 0.1 mm 1 mps 578 mmHg 79%
    20:00 +10°C° 0.1 mm 1 mps 578 mmHg 83%
    21:00 +9°C° 0.1 mm 1 mps 577 mmHg 87%
    22:00 +8°C° 0.1 mm 1 mps 577 mmHg 91%
    23:00 +7°C° 0 mm 1 mps 577 mmHg 90%

    Tomorrow, 17 August, Friday

    Time Temperature Precipitation Wind Pressure Humidity
    00:00 +7°C° 0 mm 1 mps 577 mmHg 90%
    01:00 +7°C° 0 mm 1 mps 577 mmHg 90%
    02:00 +7°C° 0 mm 1 mps 577 mmHg 90%
    03:00 +7°C° 0 mm 1 mps 576 mmHg 90%
    04:00 +7°C° 0 mm 1 mps 576 mmHg 90%
    05:00 +8°C° 0 mm 1 mps 577 mmHg 88%
    06:00 +9°C° 0 mm 1 mps 577 mmHg 85%
    07:00 +10°C° 0 mm 1 mps 578 mmHg 82%
    08:00 +11°C° 0.1 mm 1 mps 578 mmHg 74%
    09:00 +13°C° 0.1 mm 1 mps 579 mmHg 66%
    10:00 +15°C° 0.1 mm 1 mps 580 mmHg 58%
    11:00 +15°C° 0.4 mm 1 mps 580 mmHg 57%
    12:00 +16°C° 0.4 mm 1 mps 580 mmHg 55%
    13:00 +16°C° 0.4 mm 2 mps 580 mmHg 53%
    14:00 +15°C° 0.9 mm 2 mps 580 mmHg 60%
    15:00 +14°C° 0.9 mm 2 mps 579 mmHg 67%
    16:00 +13°C° 0.9 mm 2 mps 579 mmHg 74%
    17:00 +12°C° 1.4 mm 2 mps 578 mmHg 80%
    18:00 +10°C° 1.4 mm 2 mps 578 mmHg 87%
    19:00 +9°C° 1.4 mm 1 mps 578 mmHg 93%
    20:00 +9°C° 1 mm 1 mps 578 mmHg 94%
    21:00 +9°C° 1 mm 1 mps 578 mmHg 95%
    22:00 +8°C° 1 mm 1 mps 578 mmHg 95%
    23:00 +8°C° 0.2 mm 1 mps 578 mmHg 95%

    Day after tomorrow, 18 August, Saturday

    Time Temperature Precipitation Wind Pressure Humidity
    00:00 +8°C° 0.2 mm 1 mps 578 mmHg 95%
    01:00 +7°C° 0.2 mm 1 mps 578 mmHg 95%
    02:00 +7°C° 0 mm 1 mps 578 mmHg 95%
    03:00 +6°C° 0 mm 1 mps 577 mmHg 95%
    04:00 +6°C° 0 mm 1 mps 577 mmHg 95%
    05:00 +7°C° 0 mm 1 mps 578 mmHg 94%
    06:00 +7°C° 0 mm 1 mps 578 mmHg 93%
    07:00 +8°C° 0 mm 1 mps 578 mmHg 92%
    08:00 +9°C° 0.1 mm 1 mps 579 mmHg 86%
    09:00 +10°C° 0.1 mm 1 mps 580 mmHg 80%
    10:00 +12°C° 0.1 mm 1 mps 581 mmHg 74%
    11:00 +12°C° 0.3 mm 1 mps 581 mmHg 72%
    12:00 +13°C° 0.3 mm 1 mps 581 mmHg 70%
    13:00 +14°C° 0.3 mm 2 mps 581 mmHg 68%
    14:00 +13°C° 0.8 mm 2 mps 581 mmHg 71%
    15:00 +13°C° 0.8 mm 2 mps 581 mmHg 74%
    16:00 +13°C° 0.8 mm 2 mps 581 mmHg 77%
    17:00 +12°C° 0.8 mm 2 mps 580 mmHg 82%
    18:00 +10°C° 0.8 mm 2 mps 580 mmHg 87%
    19:00 +10°C° 0.8 mm 1 mps 580 mmHg 93%
    20:00 +9°C° 0.2 mm 1 mps 580 mmHg 94%
    21:00 +9°C° 0.2 mm 1 mps 580 mmHg 95%
    22:00 +8°C° 0.2 mm 1 mps 580 mmHg 96%
    23:00 +8°C° 0.1 mm 1 mps 580 mmHg 96%

    19 August, Sunday

    Time Temperature Precipitation Wind Pressure Humidity
    00:00 +8°C° 0.1 mm 1 mps 580 mmHg 96%
    01:00 +7°C° 0.1 mm 0 mps 580 mmHg 96%
    02:00 +7°C° 0 mm 0 mps 580 mmHg 96%
    03:00 +6°C° 0 mm 0 mps 579 mmHg 96%
    04:00 +6°C° 0 mm 0 mps 579 mmHg 95%
    05:00 +7°C° 0 mm 0 mps 580 mmHg 93%
    06:00 +8°C° 0 mm 0 mps 580 mmHg 91%
    07:00 +8°C° 0 mm 0 mps 581 mmHg 89%
    08:00 +11°C° 0 mm 1 mps 582 mmHg 80%
    09:00 +13°C° 0 mm 1 mps 582 mmHg 72%
    10:00 +14°C° 0 mm 1 mps 583 mmHg 64%
    11:00 +15°C° 0.3 mm 1 mps 583 mmHg 62%
    12:00 +16°C° 0.3 mm 1 mps 584 mmHg 60%
    13:00 +16°C° 0.3 mm 2 mps 584 mmHg 58%
    14:00 +16°C° 1.1 mm 2 mps 583 mmHg 62%
    15:00 +16°C° 1.1 mm 2 mps 583 mmHg 65%
    16:00 +15°C° 1.1 mm 2 mps 583 mmHg 69%
    17:00 +14°C° 1.1 mm 1 mps 582 mmHg 76%
    18:00 +13°C° 1.1 mm 1 mps 582 mmHg 84%
    19:00 +11°C° 1.1 mm 1 mps 581 mmHg 91%
    20:00 +10°C° 0.4 mm 1 mps 581 mmHg 93%
    21:00 +10°C° 0.4 mm 1 mps 581 mmHg 94%
    22:00 +8°C° 0.4 mm 0 mps 581 mmHg 96%
    23:00 +7°C° 0 mm 0 mps 580 mmHg 95%

    20 August, Monday

    Time Temperature Precipitation Wind Pressure Humidity
    00:00 +7°C° 0 mm 0 mps 580 mmHg 95%
    01:00 +7°C° 0 mm 0 mps 580 mmHg 95%
    02:00 +6°C° 0 mm 0 mps 580 mmHg 95%
    03:00 +6°C° 0 mm 0 mps 579 mmHg 95%
    04:00 +6°C° 0 mm 0 mps 579 mmHg 95%
    05:00 +7°C° 0 mm 0 mps 580 mmHg 92%
    06:00 +8°C° 0 mm 0 mps 580 mmHg 90%
    07:00 +9°C° 0 mm 0 mps 581 mmHg 88%
    08:00 +11°C° 0 mm 0 mps 582 mmHg 80%
    09:00 +14°C° 0 mm 1 mps 583 mmHg 72%
    10:00 +15°C° 0 mm 1 mps 584 mmHg 64%
    11:00 +16°C° 0.2 mm 1 mps 584 mmHg 62%
    12:00 +18°C° 0.2 mm 1 mps 584 mmHg 60%
    13:00 +17°C° 0.2 mm 2 mps 584 mmHg 57%
    14:00 +17°C° 0.7 mm 2 mps 584 mmHg 61%
    15:00 +17°C° 0.7 mm 2 mps 583 mmHg 64%
    16:00 +16°C° 0.7 mm 2 mps 583 mmHg 67%
    17:00 +15°C° 0.6 mm 2 mps 582 mmHg 75%
    18:00 +13°C° 0.6 mm 1 mps 582 mmHg 82%
    19:00 +12°C° 0.6 mm 1 mps 581 mmHg 90%
    20:00 +11°C° 0.2 mm 1 mps 581 mmHg 92%
    21:00 +10°C° 0.2 mm 1 mps 581 mmHg 94%
    22:00 +10°C° 0.2 mm 1 mps 581 mmHg 96%
    23:00 +9°C° 0.1 mm 1 mps 580 mmHg 96%

    21 August, Tuesday

    Time Temperature Precipitation Wind Pressure Humidity
    00:00 +9°C° 0.1 mm 1 mps 580 mmHg 96%
    01:00 +8°C° 0.1 mm 1 mps 580 mmHg 96%
    02:00 +8°C° 0 mm 1 mps 580 mmHg 95%
    03:00 +8°C° 0 mm 1 mps 579 mmHg 95%
    04:00 +7°C° 0 mm 1 mps 579 mmHg 94%
    05:00 +8°C° 0 mm 1 mps 580 mmHg 92%
    06:00 +10°C° 0 mm 1 mps 580 mmHg 89%
    07:00 +11°C° 0 mm 1 mps 581 mmHg 86%
    08:00 +12°C° 0 mm 1 mps 582 mmHg 77%
    09:00 +14°C° 0 mm 1 mps 582 mmHg 68%
    10:00 +16°C° 0 mm 1 mps 583 mmHg 59%
    11:00 +18°C° 0.2 mm 1 mps 583 mmHg 56%
    12:00 +19°C° 0.2 mm 1 mps 583 mmHg 53%
    13:00 +18°C° 0.2 mm 2 mps 583 mmHg 51%
    14:00 +18°C° 0.6 mm 2 mps 583 mmHg 55%
    15:00 +17°C° 0.6 mm 2 mps 583 mmHg 59%
    16:00 +17°C° 0.6 mm 2 mps 582 mmHg 62%
    17:00 +15°C° 0.7 mm 2 mps 581 mmHg 71%
    18:00 +13°C° 0.7 mm 1 mps 581 mmHg 79%
    19:00 +12°C° 0.7 mm 1 mps 580 mmHg 88%
    20:00 +11°C° 0.4 mm 1 mps 580 mmHg 90%
    21:00 +10°C° 0.4 mm 1 mps 580 mmHg 93%
    22:00 +10°C° 0.4 mm 1 mps 580 mmHg 95%
    23:00 +9°C° 0.1 mm 1 mps 579 mmHg 95%
    Show more